Location: Unspecified
(0.0000°N, 0.0000°E)
Time: 04:46:23
(UTC+00:00)

Transit 4A - Pass Details

Date: 10 October 2020
Orbit: 862 x 982 km, 66.8° (Epoch: 28 October)

Event Time Altitude Azimuth Distance (km) Brightness Sun altitude
Rises 17:33:41 0° 198° (SSW) 3,470 11.3 3.3°
Reaches altitude 10° 17:36:09 10° 197° (SSW) 2,543 10.6 2.7°
Maximum altitude 17:42:03 82° 109° (ESE) 913 7.9 1.2°
Drops below altitude 10° 17:48:07 10° 22° (NNE) 2,614 10.0 -0.3°
Sets 17:50:40 0° 21° (NNE) 3,573 10.7 -1.0°
